User: anonymous   Login
Location: Newark
(36.7000°N, 45.1333°E)
Time: 01:59:44
(UTC+00:00)
Language:

Hubble Space Telescope - Orbit

View from above orbital plane
View from above orbital plane
View from above satellite
View from above satellite

Ground track
Ground track

The orbit data is extracted from the following two-line orbital elements,

1 20580U 90037B   20047.44024054  .00000360  00000-0  10891-4 0  9992
2 20580  28.4705  46.6426 0002540 212.8425 282.8148 15.09338560437609
Epoch (UTC): 16 February 2020 10:33:56
Eccentricity: 0.0002540
inclination: 28.4705°
perigee height: 536 km
apogee height: 540 km
right ascension of ascending node: 46.6426°
argument of perigee: 212.8425°
revolutions per day: 15.09338560
mean anomaly at epoch: 282.8148°
orbit number at epoch: 43760

The dashed part of the orbit path shows where the satellite is in the earth's shadow,  

DLR